View from above orbital plane
|
View from above satellite
|
Ground track
|
The orbit data is extracted from the following two-line orbital elements,
1 45606U 20029A 21020.97667999 0.00000000 00000-0 00000-0 0 04
2 45606 45.0460 338.5660 0004000 25.1944 334.8051 15.60032763 09
Epoch (UTC): | 20 January 2021 23:26:25 |
Eccentricity: | 0.0004000 |
inclination: | 45.0460° |
perigee height: | 385 km |
apogee height: | 390 km |
right ascension of ascending node: | 338.5660° |
argument of perigee: | 25.1944° |
revolutions per day: | 15.60032763 |
mean anomaly at epoch: | 334.8051° |
orbit number at epoch: | 0 |
The dashed part of the orbit path shows where the satellite is in the earth's shadow,
|
|